Flag for Greece Weather past 2 weeks in Athens, Greece

Now
86 °F

Scattered clouds.


Feels Like: 85 °F
Forecast: 67 / 80 °F
Wind: 7 mph from Southwest

Location: Elefsis Airport

Current Time: Sep 15, 2014 at 1:27:34 PM

Latest Report: Sep 15, 2014 at 12:50 PM


Visibility: N/A

Pressure: 29.89 "Hg

Humidity: 40%

Dew point: 59 °F

Location of AthensLocation

Historic Weather in Athens — Graph

°F

Athens temperature yesterday

Maximum temperature yesterday: 86 °F (at 11:50 AM)
Minimum temperature yesterday: 70 °F (at 5:20 AM)
Average temperature yesterday: 79 °F

Past Weeks' High & Low Weather Summary

 TemperatureHumidityPressure
High90 °F (Aug 31, 2:50 PM)100% (Sep 8, 12:50 AM)29.98 "Hg (Sep 8, 12:50 AM)
Low64 °F (Sep 11, 5:50 AM)26% (Aug 31, 3:50 PM)29.62 "Hg (Sep 2, 4:20 PM)
Average78 °F57%29.83 "Hg
* Reported Aug 31 11:20 AM — Sep 15 11:50 AM, Athens, Weather by CustomWeather, © 2014

Note: Actual official high and low records may vary slightly from our data, if they occured in-between our weather recording intervals... More about our weather records

Advertising

Athens weather history for previous 24 hours

 ConditionsComfort  
Time TempWeatherWind HumidityBarometerVisibility
11:50 AM
Sep 15
84 °FScattered clouds.6 mph45%29.89 "HgN/A
11:20 AM82 °FPassing clouds.6 mph51%29.89 "HgN/A
10:50 AM82 °FPassing clouds.5 mph51%29.89 "HgN/A
10:20 AM82 °FPassing clouds.No wind48%29.89 "HgN/A
9:50 AM81 °FPassing clouds.No wind51%29.89 "HgN/A
9:20 AM79 °FSunny.No wind58%29.89 "Hg10 mi
8:50 AM75 °FSunny.No wind65%29.89 "Hg10 mi
7:50 AM70 °FClear.5 mph73%29.89 "Hg10 mi
7:20 AM68 °FClear.No wind78%29.89 "Hg10 mi
6:50 AM68 °FClear.6 mph78%29.89 "Hg10 mi
6:20 AM68 °FClear.No wind78%29.86 "Hg10 mi
5:50 AM68 °FPassing clouds.No wind78%29.86 "HgN/A
5:20 AM70 °FPassing clouds.6 mph78%29.89 "HgN/A
4:50 AM70 °FPassing clouds.7 mph78%29.89 "HgN/A
4:20 AM70 °FPassing clouds.6 mph78%29.89 "HgN/A
3:50 AM70 °FPassing clouds.6 mph78%29.89 "HgN/A
3:20 AM70 °FPassing clouds.5 mph78%29.89 "HgN/A
2:50 AM70 °FPassing clouds.No wind78%29.89 "HgN/A
1:50 AM72 °FPassing clouds.6 mph73%29.89 "HgN/A
1:20 AM72 °FPassing clouds.No wind78%29.89 "HgN/A
12:50 AM72 °FPassing clouds.No wind78%29.89 "HgN/A
11:50 PM
Sep 14
73 °FPassing clouds.5 mph74%29.89 "HgN/A
11:20 PM79 °FPassing clouds.5 mph61%29.89 "HgN/A
10:50 PM79 °FPassing clouds.5 mph61%29.89 "HgN/A
10:20 PM79 °FPassing clouds.No wind58%29.89 "HgN/A
9:50 PM79 °FPassing clouds.No wind58%29.89 "HgN/A
9:20 PM79 °FPassing clouds.6 mph61%29.89 "HgN/A
8:50 PM79 °FPassing clouds.6 mph61%29.89 "HgN/A
8:20 PM79 °FPassing clouds.6 mph61%29.89 "HgN/A
7:50 PM79 °FPassing clouds.6 mph61%29.89 "HgN/A
7:20 PM79 °FPassing clouds.9 mph61%29.89 "HgN/A
6:50 PM81 °FPassing clouds.9 mph62%29.89 "HgN/A
6:20 PM81 °FPassing clouds.9 mph58%29.86 "HgN/A
5:50 PM81 °FPassing clouds.9 mph58%29.86 "HgN/A
5:20 PM82 °FPassing clouds.14 mph55%29.86 "HgN/A
4:50 PM84 °FPassing clouds.14 mph48%29.89 "HgN/A
4:20 PM84 °FPassing clouds.14 mph48%29.89 "HgN/A
3:50 PM86 °FPassing clouds.14 mph43%29.89 "HgN/A
2:50 PM82 °FLight rain. Partly sunny.9 mph48%29.89 "HgN/A
2:20 PM86 °FPassing clouds.14 mph38%29.89 "HgN/A
1:50 PM86 °FPassing clouds.12 mph38%29.89 "HgN/A
1:20 PM86 °FPassing clouds.9 mph38%29.89 "HgN/A
Weather by CustomWeather, © 2014

See weather overviewHow to use our weather pages